Location: Erp
(42.9417°N, 1.2009°E)
Time: 18:45:44
(UTC+00:00)

SJ-7 - Pass Details

Date: 15 April 2026
Orbit: 491 x 514 km, 97.7° (Epoch: 12 May)

Event Time Altitude Azimuth Distance (km) Brightness Sun altitude
Rises 19:06:36 0° 181° (S) 2,611 7.6 -5.9°
Reaches altitude 10° 19:08:45 10° 188° (S) 1,733 6.8 -6.3°
Maximum altitude 19:12:19 43° 261° (W) 737 5.5 -6.9°
Drops below altitude 10° 19:15:56 10° 334° (NNW) 1,753 7.6 -7.5°
Sets 19:18:08 0° 341° (NNW) 2,645 8.5 -7.9°
